Location: Buisson
(44.2787°N, 4.9969°E)
Time: 07:39:33
(UTC+00:00)

CZ-2C R/B - Pass Details

Date: 18 April 2021
Orbit: 501 x 566 km, 97.7° (Epoch: 05 May)

Event Time Altitude Azimuth Distance (km) Brightness Sun altitude
Rises 04:07:01 0° 3° (N) 2,630 6.7 -8.3°
Reaches altitude 10° 04:09:13 10° 354° (N) 1,747 5.6 -7.9°
Maximum altitude 04:12:38 34° 289° (WNW) 877 3.5 -7.3°
Drops below altitude 10° 04:16:05 10° 224° (SW) 1,766 4.8 -6.8°
Enters shadow 04:17:07 - 219° (SW) 2,170 5.3 -6.6°
